Regional Weather Roundup
Issued by NWS

Home | Current Version | Previous Version | Graphics & Text | Print | Product List | Glossary On
Versions: 1 2 3 4 5 6 7 8 9 10 11 12 13 14 15 16 17 18 19 20 21 22 23 24 25 26 27 28 29 30 31 32 33 34 35 36 37 38 39 40 41 42 43 44 45 46 47 48 49 50
000
ASUS45 KBOU 200010
RWRCO

WEATHER ROUNDUP FOR COLORADO
NATIONAL WEATHER SERVICE PUEBLO CO
500 PM MST MON FEB 19 2018

NOTE: "FAIR" INDICATES FEW OR NO CLOUDS BELOW 12000 FEET WITH NO
SIGNIFICANT WEATHER AND/OR OBSTRUCTIONS TO VISIBILITY.

COZ001>005-013-030-031-200100-
...NORTHWEST COLORADO...

CITY           SKY/WX    TMP DP  RH WIND       PRES   REMARKS
CRAIG          LGT SNOW   7   1  76 W9        29.56R VSB 3/4 WCI  -7
HAYDEN         LGT SNOW   6   2  83 W8        29.50R FOG     WCI  -7
MEEKER         SNOW      12   6  77 VRB7      29.49R VSB 1/2 WCI   1
RABBIT EARS PA NOT AVBL
STEAMBOAT SPGS CLOUDY     8   5  86 W5        29.43R VSB 1/2 WCI   0
WALDEN         CLOUDY     7   1  78 NE12      29.36R WCI  -9
$$

COZ006>008-011-200100-
...WEST CENTRAL VALLEYS...

CITY           SKY/WX    TMP DP  RH WIND       PRES   REMARKS
GRAND JUNCTION CLOUDY    33  28  81 NW3       29.43S
MONTROSE       CLOUDY    33  27  78 W13       29.46R WCI  24
EAGLE          LGT SNOW  30  27  88 SW6       29.35R FOG     WCI  24
RIFLE          MIX PCPN  29  28  96 W23       29.42R VSB 1/4 WCI  15
DELTA          NOT AVBL
NUCLA          LGT SNOW  30  27  86 W10G17    29.52R WCI  21
$$

COZ017>023-064>068-200100-
...SOUTHWEST COLORADO...

CITY           SKY/WX    TMP DP  RH WIND       PRES   REMARKS
DURANGO        LGT SNOW  32  32 100 W14       29.47R FOG     WCI  22
CORTEZ         SNOW      28  27  96 NW15G22   29.54R VSB 1/4 WCI  16
PAGOSA SPRINGS FAIR      40  21  47 SW29G43   29.43F
TELLURIDE      LGT SNOW  26  22  86 W18G25    29.43S VSB 3/4 WCI  13
WOLF CREEK PAS CLOUDY    18  18 100 MISG      29.32F
$$

COZ009-010-012-014-032>034-037-058>063-200100-
...CENTRAL COLORADO...

CITY           SKY/WX    TMP DP  RH WIND       PRES   REMARKS
ASPEN          SNOW      27  25  92 N9        29.31R VSB 1/2 WCI  18
BUENA VISTA    LGT SNOW  32  29  90 SE23G29   29.31F WCI  19
COPPER MTN     SNOW      23  18  80 S20G25    29.31F VSB 1/2 WCI   8
BERTHOUD PASS  SNOW      14   3  62 MISG      29.31S VSB 1/2
COTTONWOOD PAS SNOW      32  30  93 SE6       29.31F VSB 1/2 WCI  26
GUNNISON       SNOW      28  28 100 W14G20    29.36S VSB 1/2 WCI  17
KREMMLING      LGT SNOW  32  25  74 N10       29.32R WCI  24
LEADVILLE      SNOW      24  22  91 S13G24    29.29R VSB 1/2 WCI  12
MONARCH PASS     N/A     19  18  93 MISG      29.40F
SALIDA         CLOUDY    38  31  75 SW10G16   29.41S
SUNLIGHT       HVY SNOW  16  12  86 MISG      29.33R VSB<1/4
WILKERSON PASS SNOW      21  19  93 SW13G31   29.36F VSB 1/2 WCI   9
$$

COZ069>075-200100-
...SAN LUIS VALLEY/SANGRE DE CRISTO MOUNTAINS...

CITY           SKY/WX    TMP DP  RH WIND       PRES   REMARKS
ALAMOSA        MOCLDY    36  30  79 SW20G35   29.42R
DEL NORTE      LGT SNOW  33  27  78 S14G31    29.42R WCI  23
LA VETA PASS   CLOUDY    30  23  74 S29G40    29.55F WCI  15
SAGUACHE       LGT SNOW  34  30  86 SW16G28   29.42R WCI  23
$$

COZ035-036-038>040-200100-
...NORTHERN COLORADO FRONT RANGE...

CITY           SKY/WX    TMP DP  RH WIND       PRES   REMARKS
DENVER INTL AP SNOW      10   6  84 NE15      29.56S VSB 1/2 WCI  -7
DMNS CITY PARK NOT AVBL
AURORA         LGT SNOW  10   7  89 NE9       29.56R VSB 3/4 WCI  -3
FRONT RANGE AP LGT SNOW  12  10  92 NE13      29.57S WCI  -3
ERIE MUNI ARPT LGT SNOW  13   9  85 E5        29.65S WCI   5
BOULDER MUN AP FLURRIES  14  10  85 NE6       29.58R WCI   5
CENTENNIAL     LGT SNOW  11   8  88 NE7       29.53R VSB 3/4 WCI   0
BROOMFIELD     LGT SNOW  12   9  85 NE7       29.55S VSB 3/4 WCI   2
LOVELAND       LGT SNOW  12   7  80 E10       29.64R WCI  -1
LONGMONT       LGT SNOW  15  10  80 NE6       29.62S WCI   7
$$

COZ041-046-047-076>085-087-088-200100-
...PIKES PEAK/PALMER DIVIDE AND SOUTHERN FOOTHILLS...

CITY           SKY/WX    TMP DP  RH WIND       PRES   REMARKS
COLO. SPRINGS  LGT SNOW  19  14  81 S7        29.50R WCI  10
A. F. ACADEMY  FLURRIES  17  14  91 CALM      29.47R
SCHRIEVER AFB  NOT AVBL
CHEYENNE MTN   NOT AVBL
ELLICOTT         N/A    N/A N/A N/A SE10      29.47F
FALCON         LGT SNOW  18  16  90 S5        29.47R WCI  11
FORT CARSON    NOT AVBL
LIMON          CLOUDY    17  12  80 E13       29.53F WCI   4
MONUMENT HILL  CLOUDY    12  10  92 NW7       29.47R WCI   2
CANON CITY     CLOUDY    21  19  93 E6        29.51R WCI  14
WALSENBURG     CLOUDY    27  21  80 E14       29.43F WCI  15
TRINIDAD       MIX PCPN  29  18  63 NE12      29.46R WCI  19
$$

COZ042>045-048>051-090-091-200100-
...NORTHEAST COLORADO...

CITY           SKY/WX    TMP DP  RH WIND       PRES   REMARKS
GREELEY ARPT   FLURRIES  11   6  81 E12       29.67R WCI  -3
AKRON          LGT SNOW   9   6  88 NE14      29.63F FOG     WCI  -7
BURLINGTON     LGT SNOW  15  11  83 NE12      29.66R FOG     WCI   2
WRAY           FLURRIES  14  10  85 NE10      29.73S WCI   1
YUMA           NOT AVBL
STERLING       FLURRIES  12   7  79 NE10      29.72R WCI  -1
HOLYOKE        LGT SNOW  14   9  79 NE12      29.74S WCI   0
FORT MORGAN    LGT SNOW  10   5  80 NE15      29.65F WCI  -7
$$

COZ086-089-092>099-200100-
...SOUTHEAST COLORADO...

CITY           SKY/WX    TMP DP  RH WIND       PRES   REMARKS
PUEBLO         CLOUDY    25  16  68 NE3       29.51F
LA JUNTA       PTCLDY    34  16  47 NE15      29.52F WCI  24
LAMAR          PTCLDY    32  15  49 E17G25    29.56F WCI  21
SPRINGFIELD      N/A     34  26  72 SE7       29.58R WCI  28
$$




USA.gov is the U.S. government's official web portal to all federal, state and local government web resources and services.